Torna al catalogo

STARLINK-30926

AttivoComunicazioniVLEO
NORAD 58448·PAYLOAD·🇺🇸 United States

Lanciato Nov 28, 2023 da Cape Canaveral Space Force Station

Loading…

Prossimi Passaggi (prossime 24 ore)

TLE

AggiornatoSource: CelesTrak SupGP

Epoca: Sep 15, 2026, 02:24 UTC

1 58448C 23183M   26258.10048611 -.00024111  00000+0 -87285-3 0  2581
2 58448  43.0042  51.5013 0001604 263.5665 208.4546 15.27606902    11

Traccia STARLINK-30926 in tempo reale con AllMySat

Download on the App Store